Torax TimeFrame

Torax TimeFrame ⇒ XML

NameTime LeftWindow Opens
Old World Drake48d 11:142018-09-01 19:35:00
Skybrine The Inescapable2d 10:252018-10-17 20:24:00
Viserion, the Necrodragon1d 11:362018-10-18 19:13:00
Sigil, Lich of Woe1d 10:132018-10-18 20:36:00
Dlanod, the Crazed Chancellor0d 22:272018-10-19 08:22:00
Hyrak, Bringer of Nightmares0d 22:142018-10-19 08:35:00
Archdevil Yirkon0d 15:502018-10-19 14:59:00
Vitkros, Hydra of the Deep0d 14:002018-10-19 16:49:00
Jorun the Blazing Swordsman0d 13:432018-10-19 17:06:00
Rotborn, Eater of the Dead0d 12:162018-10-19 18:33:00
Esquin, the Kinetic Master0d 10:112018-10-19 20:38:00
Lady Chaos, Queen of the Abyss0d 09:272018-10-19 21:22:00
Dreg nor, Keeper of the Infernal Essence0d 09:212018-10-19 21:28:00
Terrance, Rebel of Rallis0d 09:062018-10-19 21:43:00
Noxious Slug0d 05:422018-10-20 01:07:00
Freezebreed, The Frozen Manipulator0d 05:092018-10-20 01:40:00
Quiver, The Renegade0d 03:432018-10-20 03:06:00
Threk, King of Lords0d 02:372018-10-20 04:12:00
Balerion, Dragon of Dread0d 02:272018-10-20 04:22:00
Ganja the Stone Golem0d 02:172018-10-20 04:32:00
Amalgamated Apparition0d 02:102018-10-20 04:39:00
Lord Varan0d 00:282018-10-20 06:21:00
Melt Bane, The Forbidden Demon Dragon0d 01:442018-10-20 08:34:00
Ebliss, Fallen Angel of Despair0d 01:492018-10-20 08:39:00
Garland, The Lord Keeper0d 02:112018-10-20 09:01:00
Sarcrina the Astral Priestess0d 03:032018-10-20 09:53:00
King Ashnar, Lord of the Unliving0d 03:062018-10-20 09:56:00
Lord Sibannac0d 03:362018-10-20 10:26:00
Baron Mu, Dark Rider of the Undead0d 03:432018-10-20 10:33:00
Smoot the Yeti0d 03:442018-10-20 10:34:00
Tylos, The Lord Master0d 04:352018-10-20 11:25:00
Brutalitar, Lord of the Underworld0d 04:412018-10-20 11:31:00
Crolvak, the Fire Master0d 05:572018-10-20 12:47:00
Nar Zhul, Slayer of All0d 07:032018-10-20 13:53:00
Wanhiroeaz the Devourer0d 08:212018-10-20 15:11:00
Synge, The Red Dragon0d 08:532018-10-20 15:43:00
Sylvanna TorLai0d 09:432018-10-20 16:33:00
Ag Nabak the Abomination0d 11:392018-10-20 18:29:00
Ancient Magus Tarkin0d 11:522018-10-20 18:42:00
Beast of Cards0d 12:122018-10-20 19:02:00
Keeper of Nature0d 13:392018-10-20 20:29:00
Pinosis0d 13:512018-10-20 20:41:00
Shadow0d 13:532018-10-20 20:43:00
Rancid, Lord of Thugs0d 14:552018-10-20 21:45:00
Traxodon the Plaguebringer0d 15:102018-10-20 22:00:00
Volgan the Living Ironbark0d 15:312018-10-20 22:21:00
Lord Xordam0d 15:342018-10-20 22:24:00
Zertan, The Collector0d 16:072018-10-20 22:57:00
The Emerald Assassin0d 17:002018-10-20 23:50:00
Zikkir the Dark Archer0d 17:562018-10-21 00:46:00
Nayark the Mummified Sorcerer0d 23:032018-10-21 05:53:00
Mistress of the Sword1d 00:132018-10-21 07:03:00
Samatha Dark-Soul1d 01:192018-10-21 08:09:00
Tsort1d 01:552018-10-21 08:45:00
Kro Shuk, Doomslayer1d 02:202018-10-21 09:10:00
Lord Suka1d 04:252018-10-21 11:15:00
Nessam1d 05:012018-10-21 11:51:00
Crane1d 05:052018-10-21 11:55:00
Gnorb1d 05:132018-10-21 12:03:00
Jazzmin, Maiden of Vitality1d 05:402018-10-21 12:30:00
Lord Narada1d 05:432018-10-21 12:33:00
Nafir, God of Desolation1d 05:472018-10-21 12:37:00
Murderface1d 06:482018-10-21 13:38:00
Hackerphage, Protector of the Gateway1d 08:352018-10-21 15:25:00
Lady Ariella1d 09:052018-10-21 15:55:00
Detox1d 13:202018-10-21 20:10:00
Numerocure, The Black Messenger of Evil1d 17:122018-10-22 00:02:00
Anguish1d 18:212018-10-22 01:11:00
Great Lord Ganeshan1d 18:422018-10-22 01:32:00
Howldroid, Tormentor of the Pit1d 19:562018-10-22 02:46:00
Q-SEC Commander1d 21:562018-10-22 04:46:00
Grivvek, Protector of the Brood1d 22:202018-10-22 05:10:00
Slashbrood, Devourer of the Blackness1d 23:142018-10-22 06:04:00
Windstrike The Vile1d 23:262018-10-22 06:16:00
Ormsul the Putrid1d 23:432018-10-22 06:33:00
Bloodchill the Grizzly2d 00:462018-10-22 07:36:00
Akkel the Enflamed Warrior2d 02:462018-10-22 09:36:00
Straya, the Underworld Ruler2d 10:522018-10-22 17:42:00
Raiyar, the Shadow Master2d 13:132018-10-22 20:03:00
Gorganus of the Wood2d 13:252018-10-22 20:15:00
Crantos, Defender of Ultimation2d 19:042018-10-23 01:54:00
Anvilfist2d 22:062018-10-23 04:56:00
Bolkor, the Holy Master3d 09:492018-10-23 16:39:00
Kretok, Descendant of Nature3d 10:002018-10-23 16:50:00
Karvaz, Lord of Alsayic3d 13:002018-10-23 19:50:00
Varsanor, Master of Darkness3d 20:402018-10-24 03:30:00
Xynak, the Arcane Master4d 01:162018-10-24 08:06:00
Felroc, Overseer of Hellfire4d 04:492018-10-24 11:39:00
Emperor Neudeus, Controller of the Universe4d 06:202018-10-24 13:10:00
Lacuste of the Swarm4d 19:102018-10-25 02:00:00
Skarthul the Avenged5d 03:002018-10-25 09:50:00
Shaik, Servant of Arkron105d 01:062018-07-07 05:43:00
Rook, Hand of Arkron103d 03:412018-07-09 03:08:00
Jade Dragonite57d 09:482018-08-23 21:01:00
Animated Captain48d 12:272018-09-01 18:22:00
95 Gods, Last update: 2018-10-20 04:30:03